PEGASUS DEB, 24236

Orbit data source: Space-Track

PEGASUS DEB, 24236 is space debris in LEO originally from a launch on Thu, 19 May 1994 UTC launched from the Air Force Western Test Range (AFWTR). Debris objects in space refer to the collection of defunct objects orbiting the Earth. Examples of debris include non-operational satellites, rocket bodies, and fragments generated from explosions, collisions, or faulty payload assembly.

Loading next visibility...
Identifier
24236, 1994-029LK
Orbit
LEO
Country
Flag of USUS
Related business
Manufacturer
Unknown
Mission
Spacecraft
Bus & Motor
Unknown
Mass
Unknown
Launch date (UTC)
1994-05-19 (32 years ago)
Launch vehicle
Unknown
Launch site
Air Force Western Test Range (AFWTR)
Object type
Payload
Rocket body
Debris
Shape & HBR
Unknown shape, 0.1 m
Radar Cross Section
Small (<0.1 m²)

Expand to show TLE details & history
Last TLE update: 9 hours ago

TLE from 9 hours ago
0 PEGASUS DEB
1 24236U 94029LK  26120.65564319  .00008824  00000-0  10617-2 0  9990
2 24236  81.4324   2.6290 0310124 134.7763 227.9120 14.55019914527941
Epoch: 2026-04-30T15:44Z
TLE epoch observation values (Epoch: 2026-04-30T15:44:07.571Z)
Latitude
0.00003°
Longitude
-92.00167°
Altitude
863.27 km
Speed
7.341 km/s
True Right ascension
00h 10m 30s
True Declination
0° 00' 00"
Sunlit
Object was in daylight at epoch
Visualization orbit readout
Latitude
Unknown
Longitude
Unknown
Altitude
Unknown
Speed
Unknown
Apparent Right ascension
Unknown
Apparent Declination
Unknown
Sunlit
N/A
Visualization observer readout
Local Sidereal Time
08:22:51
Azimuth
Unknown
Elevation
Unknown
Doppler factor
Unknown
Orbital elements
Apogee altitude
926.11 km
Perigee altitude
486.692 km
Semi-major axis
7,084.538 km
Eccentricity
0.03101
Inclination
81.4324°
RAAN
2.629°
Arg. of periapsis
134.7763°
True anomaly
225.34241°
Mean anomaly
227.912°
Eccentric anomaly
226.62053°
Mean motion
3.63979 °/min
Orbital period
98.91 mins
BSTAR
0.0010617
Loading maneuver chart data...
Computing Atmospheric mass density...

Documentation

Showing up to 5 results
|